(187267) = 2001 QE272 = 2005 TA32

Discovered at Kitt Peak on 2005-10-01 by Spacewatch.

Orbit

Orbit type: Main Belt

Note: WebGL enabled browser required.

epoch2023-02-25.0
epoch JD2460000.5
perihelion date2020-04-11.36143
perihelion JD2458950.86143
argument of perihelion (°)219.71961
ascending node (°)86.88519
inclination (°)2.57960
eccentricity0.1804391
perihelion distance (AU)1.9813002
Tisserand w.r.t. Jupiter3.5
ΔV w.r.t. Earth (km/sec)8.8
semimajor axis (AU)2.4175144
mean anomaly (°)275.22636
mean daily motion (°/day)0.26221060
aphelion distance (AU)2.854
period (years)3.76
P-vector [x]0.59564555
P-vector [y]-0.72505199
P-vector [z]-0.34569639
Q-vector [x]0.80198921
Q-vector [y]0.56089679
Q-vector [z]0.20544610
absolute magnitude17.53
phase slope0.15
uncertainty0
referenceMPO 745323
observations used313
oppositions13
arc length (days)7956
first opposition used2001
last opposition used2023
residual rms (arc-secs)0.78
perturbers coarse indicatorM-v
perturbers precise indicator003Ek
first observation date used2001-08-11.0
last observation date used2023-05-24.0
computer nameMPCLINUX
JD of orbit computation2456639.763017
perihelion JD uncertainty (days)9.6230E-05
argument of perihelion uncertainty (°)8.3793E-05
ascending node uncertainty (°)8.1240E-05
inclination uncertainty (°)2.0301E-06
eccentricity uncertainty 2.3892E-08
perihelion distance uncertainty (AU)5.6125E-08
Minimum Orbit Intersection Distances (in AU)
for orbit epoch: 2460000.5, reference: E2023-KF8
Mercury1.54339
Venus1.25326
Earth0.96607
Mars0.57494
Jupiter2.37913
Saturn6.2626
Uranus15.6633
Neptune27.3421

Observations

312 total observations over interval: 2001 08 11.37393 – 2023 05 24.277332
These data are available for download (format description).

Date (UT) J2000 RA J2000 Dec Magn Location Ref
2001 08 11.37393 22 12 48.14 -15 44 27.6 20.2   608 – Haleakala-AMOS MPS 150814
2001 08 11.38442 22 12 47.60 -15 44 31.6 20.7   608 – Haleakala-AMOS MPS 150814
2001 08 11.39494 22 12 47.04 -15 44 34.9 20.2   608 – Haleakala-AMOS MPS 150814
2001 08 19.27299 22 06 17.63 -16 30 16.7 18.9   704 – Lincoln Laboratory ETS, New Mexico MPS 34926
2001 08 19.29834 22 06 16.29 -16 30 25.4 19.1   704 – Lincoln Laboratory ETS, New Mexico MPS 34926
2001 08 19.31115 22 06 15.55 -16 30 29.2 19.5   704 – Lincoln Laboratory ETS, New Mexico MPS 34926
2001 08 19.32383 22 06 15.00 -16 30 34.2 19.5   704 – Lincoln Laboratory ETS, New Mexico MPS 34926
2001 08 24.24074 22 02 04.15 -16 56 54.8 19.4   644 – Palomar Mountain/NEAT MPS 34926
2001 08 24.25194 22 02 03.56 -16 56 58.4 19.3   644 – Palomar Mountain/NEAT MPS 34926
2001 08 24.26330 22 02 02.97 -16 57 02.1 19.2   644 – Palomar Mountain/NEAT MPS 34926
2004 03 21.39607 12 55 56.81 -01 31 28.1 21.7 V 691 – Steward Observatory, Kitt Peak-Spacewatch MPS 150814
2004 03 21.42488 12 55 55.28 -01 31 17.9 21.4 V 691 – Steward Observatory, Kitt Peak-Spacewatch MPS 150814
2004 03 21.45292 12 55 53.81 -01 31 08.4 22.1 V 691 – Steward Observatory, Kitt Peak-Spacewatch MPS 150814
2005 10 01.22009 01 08 34.74 +02 20 24.4 20.5 V 691 – Steward Observatory, Kitt Peak-Spacewatch MPS 144473
2005 10 01.23774 01 08 33.75 +02 20 19.1 20.2 V 691 – Steward Observatory, Kitt Peak-Spacewatch MPS 144473
2005 10 01.25538 01 08 32.74 +02 20 13.4 20.2 V 691 – Steward Observatory, Kitt Peak-Spacewatch MPS 144473
2005 10 05.21700 01 04 50.22 +01 59 00.4 19.2   704 – Lincoln Laboratory ETS, New Mexico MPS 150814
2005 10 05.22780 01 04 49.52 +01 58 56.8 19.6   704 – Lincoln Laboratory ETS, New Mexico MPS 150814
2005 10 05.23856 01 04 48.95 +01 58 52.7 19.3   704 – Lincoln Laboratory ETS, New Mexico MPS 150814
2005 10 05.24930 01 04 48.33 +01 58 49.6 19.3   704 – Lincoln Laboratory ETS, New Mexico MPS 150814
2005 10 06.21731 01 03 53.51 +01 53 45.0 19.9 V 691 – Steward Observatory, Kitt Peak-Spacewatch MPS 144473
2005 10 06.23826 01 03 52.25 +01 53 38.4 19.8 V 691 – Steward Observatory, Kitt Peak-Spacewatch MPS 144473
2005 10 06.25578 01 03 51.22 +01 53 32.8 19.8 V 691 – Steward Observatory, Kitt Peak-Spacewatch MPS 144473
2005 10 07.28029 01 02 52.98 +01 48 13.5 20.0 V 703 – Catalina Sky Survey MPS 144473
2005 10 07.28729 01 02 52.58 +01 48 10.7 19.6 V 703 – Catalina Sky Survey MPS 144473
2005 10 07.29431 01 02 52.11 +01 48 09.0 19.4 V 703 – Catalina Sky Survey MPS 144473
2005 10 07.30134 01 02 51.79 +01 48 06.9 19.7 V 703 – Catalina Sky Survey MPS 144473
2005 10 07.35241 01 02 48.66 +01 47 50.8 19.4 V 703 – Catalina Sky Survey MPS 144473
2005 10 07.35849 01 02 48.51 +01 47 45.7 18.3 V 703 – Catalina Sky Survey MPS 144473
2005 10 07.36457 01 02 47.94 +01 47 47.9 19.3 V 703 – Catalina Sky Survey MPS 144473
2005 10 07.37064 01 02 47.61 +01 47 45.3 19.5 V 703 – Catalina Sky Survey MPS 144473
2005 10 12.19684 00 58 16.47 +01 23 49.2 19.9 V 691 – Steward Observatory, Kitt Peak-Spacewatch MPS 146234
2005 10 12.21429 00 58 15.44 +01 23 44.2 19.8 V 691 – Steward Observatory, Kitt Peak-Spacewatch MPS 146234
2005 10 12.23191 00 58 14.46 +01 23 38.9 19.9 V 691 – Steward Observatory, Kitt Peak-Spacewatch MPS 146234
2005 10 20.292077 00 51 08.989 +00 49 31.93 20.44 V 645 – Apache Point-Sloan Digital Sky Survey MPS 390198
2005 10 20.295549 00 51 08.811 +00 49 31.15 21.29   645 – Apache Point-Sloan Digital Sky Survey MPS 390198
2005 10 23.360477 00 48 42.657 +00 39 00.57 20.87 V 645 – Apache Point-Sloan Digital Sky Survey MPS 390198
2005 10 23.363949 00 48 42.495 +00 38 59.97 21.74   645 – Apache Point-Sloan Digital Sky Survey MPS 390198
2005 10 26.262467 00 46 35.049 +00 30 30.34 20.94 V 645 – Apache Point-Sloan Digital Sky Survey MPS 390198
2005 10 26.265939 00 46 34.900 +00 30 29.95 21.75   645 – Apache Point-Sloan Digital Sky Survey MPS 390198
2005 10 28.346257 00 45 10.092 +00 25 19.30 21.19 V 645 – Apache Point-Sloan Digital Sky Survey MPS 390198
2005 10 28.34662 00 45 10.09 +00 25 19.3 22.2   705 – Apache Point MPS 211806
2005 10 28.34745 00 45 10.05 +00 25 19.2 21.3 V 705 – Apache Point MPS 211806
2005 10 28.349729 00 45 09.955 +00 25 18.77 22.08   645 – Apache Point-Sloan Digital Sky Survey MPS 390198
2005 10 30.249537 00 43 58.388 +00 21 17.34 21.17 V 645 – Apache Point-Sloan Digital Sky Survey MPS 390198
2005 10 30.24991 00 43 58.38 +00 21 17.3 22.2   705 – Apache Point MPS 211806
2005 10 30.25074 00 43 58.35 +00 21 17.2 21.3 V 705 – Apache Point MPS 211806
2005 10 30.253009 00 43 58.256 +00 21 16.93 21.92   645 – Apache Point-Sloan Digital Sky Survey MPS 390198
2005 11 01.24451 00 42 49.03 +00 17 47.9 21.1 V G96 – Mt. Lemmon Survey MPS 149671
2005 11 01.245627 00 42 48.948 +00 17 48.18 21.18 V 645 – Apache Point-Sloan Digital Sky Survey MPS 390198
2005 11 01.24600 00 42 48.95 +00 17 48.1 22.6   705 – Apache Point MPS 211806
2005 11 01.24683 00 42 48.92 +00 17 48.1 21.4 V 705 – Apache Point MPS 211806
2005 11 01.249099 00 42 48.827 +00 17 47.87 21.99   645 – Apache Point-Sloan Digital Sky Survey MPS 390198
2005 11 01.25056 00 42 48.78 +00 17 47.7 20.7 V G96 – Mt. Lemmon Survey MPS 149671
2005 11 01.25664 00 42 48.60 +00 17 47.1 21.0 V G96 – Mt. Lemmon Survey MPS 149671
2005 11 01.26274 00 42 48.34 +00 17 46.6 20.9 V G96 – Mt. Lemmon Survey MPS 149671
2005 11 03.265927 00 41 45.148 +00 15 03.61 21.07 V 645 – Apache Point-Sloan Digital Sky Survey MPS 390198
2005 11 03.26628 00 41 45.15 +00 15 03.6 21.9   705 – Apache Point MPS 211806
2005 11 03.26712 00 41 45.12 +00 15 03.5 21.1 V 705 – Apache Point MPS 211806
2005 11 03.269399 00 41 45.034 +00 15 03.40 21.80   645 – Apache Point-Sloan Digital Sky Survey MPS 390198
2005 11 06.251647 00 40 23.464 +00 12 29.12 20.89 V 645 – Apache Point-Sloan Digital Sky Survey MPS 390198
2005 11 06.25201 00 40 23.46 +00 12 29.1 21.4   705 – Apache Point MPS 211806
2005 11 06.25285 00 40 23.44 +00 12 29.0 20.8 V 705 – Apache Point MPS 211806
2005 11 06.255119 00 40 23.372 +00 12 28.98 21.60   645 – Apache Point-Sloan Digital Sky Survey MPS 390198
2005 11 07.29538 00 39 58.44 +00 12 00.1 21.4   705 – Apache Point MPS 211806
2005 11 07.29620 00 39 58.41 +00 12 00.0 20.7 V 705 – Apache Point MPS 211806
2005 11 11.253177 00 38 41.258 +00 12 07.72 20.81 V 645 – Apache Point-Sloan Digital Sky Survey MPS 390198
2005 11 11.256649 00 38 41.202 +00 12 07.77 21.79   645 – Apache Point-Sloan Digital Sky Survey MPS 390198
2005 11 19.25190 00 37 29.52 +00 21 34.4 21.7   705 – Apache Point MPS 211806
2005 11 19.25522 00 37 29.51 +00 21 34.9 21.0 V 705 – Apache Point MPS 211806
2005 11 23.25075 00 37 35.36 +00 30 40.4 21.9   705 – Apache Point MPS 211806
2005 11 23.25407 00 37 35.37 +00 30 40.9 21.2 V 705 – Apache Point MPS 211806
2005 12 01.23744 00 39 07.02 +00 56 55.4 22.5   705 – Apache Point MPS 211806
2005 12 01.23826 00 39 07.03 +00 56 55.7 22.0 V 705 – Apache Point MPS 211806
2008 03 28.40352 15 07 42.80 -14 09 53.3 20.8 V 691 – Steward Observatory, Kitt Peak-Spacewatch MPS 244038
2008 03 28.42117 15 07 42.51 -14 09 51.6 20.9 V 691 – Steward Observatory, Kitt Peak-Spacewatch MPS 244038
2008 03 28.43881 15 07 42.19 -14 09 49.8 20.8 V 691 – Steward Observatory, Kitt Peak-Spacewatch MPS 244038
2008 04 01.35287 15 06 31.59 -14 03 04.0 20.6 V 691 – Steward Observatory, Kitt Peak-Spacewatch MPS 244718
2008 04 01.37050 15 06 31.14 -14 03 02.2 20.9 V 691 – Steward Observatory, Kitt Peak-Spacewatch MPS 244718
2008 04 01.38811 15 06 30.73 -14 03 00.1 20.6 V 691 – Steward Observatory, Kitt Peak-Spacewatch MPS 244718
2008 04 30.29484 14 45 28.22 -12 33 48.2 19.7 V G96 – Mt. Lemmon Survey MPS 248152
2008 04 30.30299 14 45 27.75 -12 33 46.1 19.6 V G96 – Mt. Lemmon Survey MPS 248152
2008 04 30.31113 14 45 27.25 -12 33 44.6 19.6 V G96 – Mt. Lemmon Survey MPS 248152
2008 04 30.31932 14 45 26.74 -12 33 42.8 19.6 V G96 – Mt. Lemmon Survey MPS 248152
2008 04 30.40276 14 45 21.63 -12 33 23.8 19.4 V G96 – Mt. Lemmon Survey MPS 248152
2008 04 30.40501 14 45 21.49 -12 33 23.1 19.6 V G96 – Mt. Lemmon Survey MPS 248152
2008 04 30.40724 14 45 21.34 -12 33 22.8 19.8 V G96 – Mt. Lemmon Survey MPS 248152
